Location: Milano
(45.4642°N, 9.1900°E)
Time: 01:59:57
(UTC+02:00)

ISS - Pass Details

Date: 14 May 2021
Orbit: 417 x 422 km, 51.6° (Epoch: 14 June)

Event Time Altitude Azimuth Distance (km) Brightness Sun altitude
Rises 04:26:33 0° 298° (WNW) 2,374 -0.1 -13.1°
Reaches altitude 10° 04:28:39 10° 298° (WNW) 1,508 -1.1 -12.9°
Maximum altitude 04:32:02 85° 212° (SSW) 428 -3.8 -12.5°
Drops below altitude 10° 04:35:25 10° 122° (ESE) 1,503 -0.8 -12.0°
Sets 04:37:31 0° 122° (ESE) 2,365 0.3 -11.8°
